Regional Weather Roundup
Issued by NWS

Home | Current Version | Previous Version | Text Only | Print | Product List | Glossary Off
Versions: 1 2 3 4 5 6 7 8 9 10 11 12 13 14 15 16 17 18 19 20 21 22 23 24 25 26 27 28 29 30 31 32 33 34 35 36 37 38 39 40 41 42 43 44 45 46 47 48 49 50

000
ASUS43 KIND 121809
RWRIN

WEATHER ROUNDUP FOR INDIANA
NATIONAL WEATHER SERVICE INDIANAPOLIS IN
100 PM EST TUE DEC 12 2017

NOTE: "FAIR" INDICATES FEW OR NO CLOUDS BELOW 12,000 FEET WITH NO
SIGNIFICANT WEATHER AND/OR OBSTRUCTIONS TO VISIBILITY.

* - STATION DOES NOT REPORT WEATHER SUCH AS PRECIPITATION OR FOG.

+ - STATION NOT QUALITY CONTROLLED BY THE NATIONAL WEATHER SERVICE.
    USE DATA WITH CAUTION...ESPECIALLY DEWPOINT AND RELATIVE
    HUMIDITY OBSERVATIONS.

INZ001>003-010>013-019-020-121900-
NORTHWEST INDIANA

CITY           SKY/WX    TMP DP  RH WIND       PRES   REMARKS
KNOX *+          N/A     21  12  68 W21G30    30.02S WCI   6
LA PORTE +     LGT SNOW  20  17  87 NW10      30.01S VSB 1   WCI   9
6HR MIN TEMP:  20; 6HR MAX TEMP:  23;

MICHIGAN CITY+ LGT SNOW  23  18  80 NW17G23   30.02F WCI   9
MONTICELLO +   SUNNY     25   6  45 NW21G26   30.04S WCI  11
6HR MIN TEMP:  20; 6HR MAX TEMP:  26;

RENSSELAER +   MOSUNNY   23   1  39 W16       30.06F WCI  10
VALPARAISO     CLOUDY    22  11  62 NW18G25   30.03F WCI   7
6HR MIN TEMP:  21; 6HR MAX TEMP:  24; 6HR PCP: TRACE;


$$

LMZ046-743>745-121900-
SOUTHERN LAKE MICHIGAN

STATION/POSITION TIME  TEMP    WIND        PRES    WAVE
                       AIR SEA DIR/SP/G            HT
                 (UTC) (F)     (DEG/KT/KT) (MB)    (FT)
BURNS HARBOR     1740   22     300/ 21/ 27 1017.9R
MICHIGAN CITY    1740   22     290/ 27/ 30   N/A

$$

INZ004-005-014>016-021>024-121900-
NORTH CENTRAL INDIANA

CITY           SKY/WX    TMP DP  RH WIND       PRES   REMARKS
ELKHART        LGT SNOW  21  16  79 NW14G21   29.96F WCI   8
GOSHEN         CLOUDY    21  14  74 NW23G31   29.95F WCI   5
6HR MIN TEMP:  20; 6HR MAX TEMP:  23; 6HR PCP: TRACE;

LOGANSPORT +   PTSUNNY   27  10  50 NW15G25   30.02F WCI  15
PERU/GRISSOM   PTSUNNY   24  10  56 W21G26    29.99S WCI   9
6HR MIN TEMP:  22; 6HR MAX TEMP:  28; 6HR PCP: TRACE;

ROCHESTER +    MOSUNNY   27  16  63 W17G28    30.00S HAZE    WCI  14
SOUTH BEND     CLOUDY    22  12  65 NW18G28   29.98S WCI   7
6HR MIN TEMP:  20; 6HR MAX TEMP:  23; 6HR PCP: TRACE;

WARSAW +       CLOUDY    23  12  63 NW15G24   29.95F WCI  10

$$

INZ006>009-017-018-025>027-121900-
NORTHEAST INDIANA

CITY           SKY/WX    TMP DP  RH WIND       PRES   REMARKS
AUBURN +       CLOUDY    27  12  54 W17       29.93F WCI  14
FORT WAYNE     LGT SNOW  21  17  84 NW10      29.94F VSB 1   WCI  10
6HR MIN TEMP:  20; 6HR MAX TEMP:  24; 6HR PCP:  0.05;

HUNTINGTON +   CLOUDY    25  17  71 W12G25    29.95F WCI  14
6HR MIN TEMP:  21; 6HR MAX TEMP:  26;

KENDALLVILLE + FLURRIES  20  13  74 N15       29.92F WCI   7

$$

INZ028-029-035-036-043>045-051>053-121900-
WEST CENTRAL INDIANA

CITY           SKY/WX    TMP DP  RH WIND       PRES   REMARKS
CRAWFORDSVL +  MOSUNNY   24  10  55 MISG        N/A
6HR MIN TEMP:  20; 6HR MAX TEMP:  24;

GREENCASTLE +  SUNNY     25   9  50 W10G17    30.06F WCI  15
LAFAYETTE      SUNNY     25   9  50 NW16G25   30.06F WCI  12
6HR MIN TEMP:  20; 6HR MAX TEMP:  25;

TERRE HAUTE    MOSUNNY   27   8  44 NW15G23   30.11F WCI  15
6HR MIN TEMP:  24; 6HR MAX TEMP:  29;


$$

INZ030>032-037>040-046>048-054>057-064-065-121900-
CENTRAL INDIANA

CITY           SKY/WX    TMP DP  RH WIND       PRES   REMARKS
COLUMBUS       MOSUNNY   28   9  43 NW16G23   30.02F WCI  17
FRANKFORT +    SUNNY     29  11  48 NW18      30.04S WCI  16
6HR MIN TEMP:  24; 6HR MAX TEMP:  29;

GREENWOOD *+   MOSUNNY   30  13  49 NW15G24   30.02F WCI  19
INDIANAPOLIS   MOSUNNY   27   8  44 W21       30.03F WCI  13
6HR MIN TEMP:  23; 6HR MAX TEMP:  28;

-EAGLE CREEK   MOSUNNY   26   9  48 W20       30.02F WCI  12
6HR MIN TEMP:  24; 6HR MAX TEMP:  28;

KOKOMO +       PTSUNNY   27  13  55 NW22G28   29.99F WCI  13
6HR MIN TEMP:  22; 6HR MAX TEMP:  27; 6HR PCP: TRACE;

MARION +       CLOUDY    25  13  62 NW22      29.98F HAZE    WCI  10
MT COMFORT *+  PTSUNNY   27  16  63 W18G24    30.00F WCI  13
SHELBYVILLE    MOSUNNY   27  10  49 W17       30.00F WCI  14
6HR MIN TEMP:  25; 6HR MAX TEMP:  31; 6HR PCP: TRACE;

ZIONSVILLE +   SUNNY     24   8  50 W14G22    30.02F WCI  12
6HR MIN TEMP:  20; 6HR MAX TEMP:  24;


$$

INZ033-034-041-042-049-050-058-059-121900-
EAST CENTRAL INDIANA

CITY           SKY/WX    TMP DP  RH WIND       PRES   REMARKS
MUNCIE         CLOUDY    26  13  57 NW14G26   29.96F WCI  14
6HR MIN TEMP:  24; 6HR MAX TEMP:  29; 6HR PCP: TRACE;

RICHMOND +     MOSUNNY   23  16  74 NW20      29.93S WCI   8

$$

INZ060-061-067>069-081>083-085>088-121900-
SOUTHWEST INDIANA

CITY           SKY/WX    TMP DP  RH WIND       PRES   REMARKS
EVANSVILLE     MOSUNNY   32  13  45 NW17G29   30.13F WCI  21
6HR MIN TEMP:  31; 6HR MAX TEMP:  35; 6HR PCP: TRACE;

HUNTINGBURG +  MOSUNNY   31  14  49 NW17G23   30.10F WCI  19
6HR MIN TEMP:  29; 6HR MAX TEMP:  34; 6HR PCP: TRACE;

WASHINGTON +   MOSUNNY   28  10  45 NW18G24   30.11F WCI  16
6HR MIN TEMP:  27; 6HR MAX TEMP:  33;


$$

INZ062-063-066-070>080-084-089>092-121900-
SOUTH CENTRAL AND SOUTHEAST INDIANA

CITY           SKY/WX    TMP DP  RH WIND       PRES   REMARKS
BEDFORD +      SUNNY     28   9  43 W14G21    30.04F WCI  17
BLOOMINGTON    MOSUNNY   28   7  41 NW10G22   30.04F WCI  19
6HR MIN TEMP:  25; 6HR MAX TEMP:  32;

MADISON *+     MOSUNNY   32  10  40 NW13G20   30.00F WCI  22
NORTH VERNON + PTSUNNY   28  10  47 NW15G24   30.01F WCI  17

$$





USA.gov is the U.S. government's official web portal to all federal, state and local government web resources and services.